Location: Blue Pit
(43.1414°N, 93.2208°W)
Time: 23:38:52
(UTC+00:00)

Cosmos 1400 Rocket - Pass Details

Date: 18 November 2025
Orbit: 476 x 513 km, 81.1° (Epoch: 14 December)

Event Time Altitude Azimuth Distance (km) Brightness Sun altitude
Rises 23:22:20 0° 150° (SSE) 2,617 6.2 -6.9°
Reaches altitude 10° 23:25:03 10° 129° (SE) 1,732 5.1 -7.4°
Maximum altitude 23:27:30 17° 89° (E) 1,366 4.3 -7.8°
Drops below altitude 10° 23:29:57 10° 49° (NE) 1,732 4.8 -8.2°
Enters shadow 23:30:28 - 43° (NE) 1,878 5.0 -8.3°
